Location: *
(41.7492°S, 135.4150°W)
Time: 23:24:07
(UTC+00:00)

ITAMSAT 1 - Pass Details

Date: 02 July 2022
Orbit: 784 x 795 km, 98.9° (Epoch: 09 August)

Event Time Altitude Azimuth Distance (km) Brightness Sun altitude
Rises 14:45:53 0° 55° (NE) 3,300 12.2 -18.7°
Reaches altitude 10° 14:48:44 10° 71° (ENE) 2,377 11.4 -18.1°
Maximum altitude 14:52:33 21° 118° (ESE) 1,750 10.0 -17.5°
Drops below altitude 10° 14:56:23 10° 164° (SSE) 2,393 10.2 -16.8°
Sets 14:59:14 0° 180° (S) 3,329 10.7 -16.3°
